RH
4 5 5 6 8 10 10 10 11 12 12 14 12 9 7 6 9 10 10 11 12 17 16 16 21 28 34 35 34 34 35 38 42 46 51 55 62 72 74 66 62 64 61 56 54 50 47 45 46 46 45 43 41 39 38 37 36 36 37 37 38 38 39 39 39 37 37 36 35 35 32 31 32 32 32 31 31 29 30 31 30 30 33 32 33 37 37 39 41 42 39 33 26 25 25 21 20
4 5 6 8 9 9 11 9 12 14 14 16 12 9 9 9 11 11 11 13 14 20 20 17 20 27 34 33 31 33 37 41 42 46 51 55 61 70 75 68 66 68 61 57 56 50 48 48 47 46 45 43 41 39 40 40 39 39 38 37 38 39 40 40 39 38 37 36 36 35 33 32 33 33 33 33 32 30 27 28 29 28 32 32 32 36 38 40 41 42 42 40 33 29 27 22 20
5 7 8 10 9 9 11 10 13 14 14 15 11 11 12 12 14 14 14 18 19 20 22 20 24 30 31 29 28 32 37 40 43 48 51 55 60 64 70 68 67 67 60 60 57 51 51 51 50 48 45 42 40 41 42 42 41 40 38 36 36 38 40 40 39 38 39 39 38 36 34 34 34 34 34 34 33 31 26 25 26 27 30 31 33 35 38 40 40 40 42 44 38 33 29 23 20
6 8 9 10 9 9 11 12 12 13 15 12 12 12 12 18 20 19 17 19 21 21 23 25 30 33 30 29 30 33 37 39 40 47 51 55 58 61 66 69 68 63 62 65 58 52 53 53 50 48 44 41 41 43 44 42 41 40 38 36 35 37 38 38 38 38 39 40 38 36 36 35 35 35 35 34 32 29 23 22 23 25 29 31 33 35 36 39 39 38 41 45 41 36 31 24 21
8 9 9 9 9 9 10 13 12 12 13 10 13 12 12 25 27 24 22 21 21 21 23 28 32 33 33 32 32 36 40 42 43 47 50 53 57 59 60 64 66 61 65 66 55 53 53 52 49 45 43 41 41 44 44 43 43 41 38 36 35 36 35 36 38 38 39 39 38 36 37 36 35 35 35 32 30 28 23 21 23 25 29 33 36 35 34 36 38 38 41 44 42 39 35 28 22
9 9 8 9 10 10 11 15 14 13 11 7 12 12 13 24 27 27 27 26 26 23 23 30 34 33 39 39 39 42 43 45 48 51 51 55 59 60 58 61 65 61 65 63 54 53 52 50 46 43 42 40 41 44 45 45 45 43 40 37 36 35 34 35 38 39 38 37 36 36 37 36 36 35 35 34 32 31 26 22 23 26 30 36 40 40 37 37 39 39 40 43 43 40 39 34 27
9 9 9 9 11 11 13 15 13 13 10 7 11 14 15 18 23 24 26 27 29 28 26 36 40 35 41 44 46 48 47 49 52 53 53 56 60 62 61 63 67 63 63 60 54 52 50 48 45 43 41 40 41 44 45 45 46 45 42 39 36 35 35 36 37 37 36 36 35 34 35 36 36 35 36 38 36 33 31 24 22 25 29 35 41 45 43 39 38 39 40 43 44 41 38 36 31
9 9 8 10 12 11 12 12 10 10 8 8 11 14 13 14 17 17 22 24 26 28 29 39 41 37 44 48 52 52 49 52 53 54 55 57 60 65 67 68 68 64 61 59 54 52 50 49 46 44 42 41 42 43 46 46 46 46 44 41 38 36 36 36 36 35 35 35 33 32 33 35 36 36 39 42 41 37 35 31 27 27 29 33 38 43 44 41 38 36 38 38 39 42 39 36 31
9 10 10 11 14 13 13 12 10 9 7 7 9 11 12 13 14 14 18 21 22 25 28 36 35 38 48 51 56 55 52 55 55 56 59 60 62 64 67 70 69 64 61 58 55 54 53 53 51 47 44 44 45 45 46 46 46 47 45 41 39 37 36 36 35 35 35 34 32 31 32 34 36 39 42 45 46 43 40 37 33 31 31 34 36 39 40 40 40 36 35 33 36 43 41 37 31
10 11 12 13 16 16 15 13 10 10 11 10 10 11 13 13 13 15 16 18 19 20 28 38 38 40 47 52 55 54 54 56 57 59 61 62 63 63 65 68 66 61 59 56 56 56 56 56 54 50 47 46 47 46 45 44 45 46 46 44 41 39 38 37 36 35 34 34 31 29 30 34 37 40 44 46 47 46 44 42 39 36 35 36 37 37 37 38 39 36 31 29 35 41 38 36 32
10 10 12 13 15 16 15 13 11 12 14 13 13 13 14 14 14 15 15 16 16 17 28 42 45 43 46 52 52 52 54 58 60 61 62 62 63 62 63 65 63 59 57 57 57 58 59 58 56 52 49 48 47 45 44 44 45 47 47 45 43 42 41 39 38 36 34 33 31 29 30 33 36 39 42 43 46 45 45 44 42 40 40 40 39 37 36 36 36 35 32 26 26 32 34 36 34
11 12 12 13 13 13 13 12 12 13 16 15 15 15 15 16 14 15 14 15 15 14 20 32 38 38 46 51 50 52 56 60 63 63 63 62 61 60 61 62 61 58 56 57 58 59 60 58 56 52 50 50 47 46 46 47 48 49 48 45 44 44 44 42 40 38 35 33 33 32 31 32 33 34 37 38 41 42 42 41 40 39 39 41 41 39 38 39 36 36 35 29 23 24 30 36 36
12 13 13 14 14 13 13 13 12 14 18 17 16 17 16 16 15 16 15 15 15 14 21 30 31 33 42 49 51 54 54 58 63 65 66 62 61 60 59 60 59 57 56 58 59 59 60 58 57 54 53 51 49 48 48 50 50 48 47 44 43 46 46 46 45 41 38 36 37 36 34 35 35 34 36 38 38 39 41 41 39 36 37 39 39 40 42 43 39 36 36 34 30 26 27 33 37
11 12 13 15 14 13 14 14 13 15 18 17 16 17 16 16 16 16 16 17 15 16 29 33 28 35 44 48 54 55 52 53 57 62 62 59 62 62 57 56 58 58 60 61 60 60 59 58 57 56 54 52 52 50 50 50 48 46 44 42 42 43 43 45 46 44 42 39 39 38 38 39 37 35 37 41 41 41 42 42 40 38 37 38 38 38 41 44 40 36 36 36 33 31 28 29 36
11 11 12 13 13 12 13 14 13 14 17 16 15 16 16 17 16 17 17 18 15 17 30 32 25 36 46 47 53 55 53 51 52 57 55 54 59 60 56 53 56 62 65 64 61 60 57 56 55 55 54 54 52 50 50 48 48 48 44 41 43 43 41 42 43 44 44 43 41 39 41 42 38 36 40 45 47 47 47 46 46 43 40 39 38 36 37 41 39 34 36 38 36 35 33 28 33
11 11 13 13 14 14 13 13 13 14 17 16 15 16 17 18 17 19 18 16 15 16 25 31 28 36 42 42 49 55 55 54 55 57 52 53 56 58 58 55 57 64 67 65 61 57 51 50 51 51 53 53 51 50 50 48 49 50 45 44 45 45 43 43 44 45 47 48 45 41 42 46 43 41 46 52 53 54 53 51 50 46 43 40 38 36 36 39 39 34 35 40 41 38 36 33 32
12 12 14 14 15 14 12 13 14 16 19 18 18 17 18 19 18 17 18 16 17 21 23 28 32 35 37 39 49 55 55 56 58 58 54 54 55 56 59 58 59 63 64 59 53 51 48 49 49 50 52 51 50 51 50 51 53 50 45 45 45 47 47 45 45 46 47 49 47 43 44 47 46 45 52 58 59 61 59 56 51 46 44 44 42 38 37 41 43 38 35 39 43 41 39 37 35
13 13 14 14 15 13 12 15 16 18 19 19 19 19 19 19 17 16 19 18 22 31 28 27 32 32 34 39 50 54 53 55 56 59 57 55 57 56 57 58 59 60 60 55 50 50 50 51 49 47 51 51 50 52 52 53 55 52 47 44 42 45 47 44 44 44 43 44 46 46 45 47 48 49 55 61 63 65 64 62 56 49 45 45 46 43 40 43 42 38 37 38 42 43 39 39 39
12 13 14 14 13 11 12 18 19 20 19 19 20 19 19 17 16 16 19 19 25 40 37 31 37 36 37 43 50 53 53 53 52 53 51 51 56 56 57 58 58 57 56 53 51 52 50 49 48 51 55 53 49 51 51 50 51 51 47 43 41 42 46 45 45 47 43 42 44 46 47 49 51 51 56 62 66 67 67 65 59 53 48 46 49 48 45 46 42 38 41 42 42 44 39 38 41
12 13 14 14 13 11 14 19 19 21 20 20 19 17 17 16 17 17 18 19 24 39 39 35 40 38 38 42 45 48 48 47 47 48 45 47 52 52 55 57 56 55 51 48 47 50 51 49 51 57 59 53 48 47 48 47 44 45 43 42 42 42 46 47 48 50 47 47 46 48 52 54 55 54 56 60 64 69 71 66 59 53 50 50 53 53 52 52 47 39 41 45 44 44 40 38 43
12 13 14 13 13 13 15 19 19 20 19 18 17 15 16 16 19 19 17 19 23 36 39 36 38 37 36 38 40 42 43 44 45 46 44 43 47 50 53 55 55 50 46 45 46 50 54 51 50 53 52 48 46 44 44 44 40 39 38 41 44 43 46 46 50 54 55 57 51 52 60 64 65 60 59 62 65 69 69 67 61 56 56 58 59 60 60 60 56 45 41 45 46 46 44 42 45
13 13 13 13 13 14 14 15 16 17 14 15 15 14 16 17 18 18 16 20 25 35 39 36 40 39 36 38 40 41 42 45 45 46 46 45 46 50 53 53 50 45 45 49 50 51 51 49 49 49 45 43 42 40 41 42 39 36 35 42 45 46 50 49 53 59 64 70 61 58 62 65 70 69 66 66 67 68 66 64 62 59 61 63 63 63 63 62 60 55 49 48 50 55 56 55 52
14 14 13 13 13 14 15 14 14 14 12 13 15 15 15 16 16 15 18 25 26 33 35 33 39 42 41 42 43 44 45 47 46 48 50 48 48 52 55 53 50 48 50 53 51 49 47 46 48 47 45 44 41 39 38 36 34 33 33 38 40 44 52 51 55 60 65 74 72 68 67 62 66 71 69 67 67 69 68 65 63 62 63 63 64 65 66 65 64 61 57 52 51 56 60 61 57
14 14 13 13 13 14 15 15 15 13 13 13 14 14 13 14 16 16 24 29 28 33 33 30 36 40 42 42 43 44 45 46 48 51 53 49 49 55 58 56 54 52 54 53 49 49 49 48 48 46 44 43 39 35 32 31 31 32 33 35 38 44 51 49 51 61 65 69 73 75 75 69 66 66 66 67 67 69 71 70 69 69 68 65 64 66 69 70 68 66 64 60 54 50 53 56 52
14 14 14 13 13 14 14 14 14 14 14 13 13 13 12 14 16 19 28 33 32 33 32 32 37 39 39 38 39 39 39 43 47 52 55 54 53 56 58 58 55 53 55 55 49 48 48 48 48 46 45 40 36 33 30 29 29 31 33 37 40 42 47 46 44 54 62 64 67 68 69 68 67 64 62 63 65 69 72 72 72 71 67 65 65 66 69 71 69 68 68 65 61 54 51 51 48
14 15 14 13 13 13 14 13 14 14 14 13 13 13 13 14 16 20 32 36 33 32 33 36 38 38 37 35 36 35 36 41 47 51 54 57 54 51 53 55 54 53 57 56 50 48 46 48 50 46 44 39 34 33 32 31 30 29 29 33 39 37 39 44 43 46 54 61 63 64 62 63 65 62 59 59 64 73 76 73 71 65 59 59 61 62 64 68 66 65 67 67 66 61 53 49 47
13 14 14 14 13 13 14 13 13 14 13 13 13 14 15 16 16 21 32 35 33 32 33 35 34 36 36 35 37 37 38 43 47 53 57 55 49 49 51 51 55 57 54 50 47 47 47 49 48 42 39 37 33 32 32 31 30 28 27 29 35 39 40 43 44 42 47 58 66 69 66 65 65 61 58 62 67 74 77 75 72 63 56 54 56 54 53 57 57 60 65 65 64 61 55 49 46
13 13 13 13 13 13 13 12 13 14 14 14 13 15 16 16 17 21 28 31 32 32 32 33 32 34 37 36 37 39 43 46 50 56 57 50 45 48 50 50 56 56 47 41 42 43 45 47 43 37 36 36 33 31 30 28 27 25 27 28 30 35 38 40 42 41 45 53 61 68 69 67 68 64 61 64 66 70 73 72 70 63 56 53 53 50 45 44 46 51 58 61 62 61 58 53 49
12 12 12 13 13 13 13 11 12 13 14 14 14 15 16 16 18 21 24 27 29 32 34 35 34 35 37 35 36 40 44 46 52 57 53 46 46 48 48 50 53 47 39 38 41 42 44 44 39 36 36 33 32 30 29 26 25 24 25 28 29 31 34 39 41 41 44 48 50 58 65 65 64 63 62 61 59 63 66 63 60 55 51 53 54 52 49 47 45 46 50 56 62 65 63 58 52
11 12 12 12 12 12 12 12 13 12 13 15 14 16 17 16 17 20 22 23 25 31 34 35 36 39 39 36 37 43 45 45 49 53 51 48 48 47 46 49 46 38 36 38 40 40 41 40 35 34 33 30 30 30 30 26 24 24 24 27 27 27 29 35 39 40 45 48 47 53 60 58 56 58 58 56 53 59 62 55 50 47 44 49 52 51 51 53 53 50 49 51 58 64 65 62 58
12 13 12 12 13 13 12 13 14 14 14 15 14 16 18 16 19 22 22 23 27 34 37 36 39 42 43 41 40 45 49 50 50 49 49 48 48 49 45 43 38 34 36 40 39 37 36 34 31 30 27 24 24 25 25 24 24 24 24 24 25 25 25 28 33 38 44 47 47 54 56 47 44 47 48 51 53 56 57 48 43 43 41 46 50 47 44 46 52 54 53 52 54 59 62 65 67
14 15 14 14 15 15 13 14 15 16 15 15 15 18 18 16 21 25 22 24 29 35 37 35 37 42 44 43 41 46 52 53 51 48 49 48 50 52 45 39 36 35 40 41 37 33 32 30 28 26 22 18 18 18 18 19 23 26 25 24 24 24 23 24 27 33 41 45 47 53 51 38 33 37 42 48 50 49 47 42 44 48 44 47 51 48 41 38 43 49 51 51 52 55 60 65 70
17 17 17 18 18 16 15 15 16 18 19 17 16 19 18 18 25 28 25 25 28 32 36 33 34 40 43 43 42 45 49 51 52 51 52 53 54 53 49 45 41 42 46 41 34 32 30 27 26 24 20 17 17 17 17 19 22 25 24 25 25 24 24 26 26 30 37 42 46 48 44 38 34 37 41 44 43 41 39 37 44 49 43 46 53 51 44 39 41 43 43 46 47 51 58 66 69
22 20 19 21 19 18 19 19 19 21 23 22 20 19 18 19 28 31 27 26 26 31 36 34 34 37 40 42 43 44 45 49 53 54 55 56 56 52 51 53 49 48 48 37 33 33 30 28 25 23 20 17 17 18 19 22 25 25 23 26 27 26 26 27 27 30 34 38 42 42 40 39 38 40 45 46 43 40 39 38 41 43 42 50 56 51 46 45 45 41 40 42 45 49 57 64 67
30 29 25 26 24 22 22 21 21 24 25 24 22 19 18 21 27 30 28 27 27 30 35 36 37 37 37 40 44 45 43 46 48 50 54 55 57 54 53 55 50 49 44 34 35 35 32 32 26 21 20 18 18 20 21 22 26 26 23 26 28 27 26 26 26 28 31 34 36 37 38 39 39 42 47 48 45 41 40 40 42 41 40 49 53 47 43 46 47 43 40 40 42 48 58 62 64
37 40 31 30 30 26 24 23 24 25 26 26 23 20 20 22 25 28 28 27 26 28 32 37 40 40 38 39 42 44 44 47 48 49 53 53 53 57 59 55 48 46 42 35 38 36 32 34 26 21 20 19 20 22 24 27 28 28 25 27 29 27 25 24 25 25 27 32 34 35 38 40 42 46 49 48 45 42 40 42 44 42 40 44 47 42 40 43 45 42 39 39 43 52 63 64 62
38 44 36 29 29 27 25 24 26 28 29 28 26 23 22 23 25 27 27 26 26 26 30 35 39 41 41 40 41 42 44 50 53 54 57 54 53 54 55 53 49 47 41 38 40 36 33 33 27 24 22 20 22 25 29 32 32 31 28 29 30 26 23 22 24 23 25 28 31 34 36 38 40 43 44 42 39 37 37 40 41 40 38 40 43 42 41 43 43 41 38 39 44 52 62 64 61
35 42 40 31 28 29 27 26 27 30 30 30 30 27 24 25 27 28 28 28 28 28 29 34 38 41 41 41 41 40 39 45 49 50 50 48 50 53 53 52 50 47 42 39 41 38 36 34 28 27 26 22 24 29 33 34 34 33 31 31 30 28 25 22 23 25 25 26 29 31 32 33 34 35 35 33 31 32 33 34 35 37 35 34 38 40 41 45 47 45 41 39 42 49 60 63 62
33 38 40 33 30 32 33 32 29 30 32 31 32 29 27 29 28 27 28 28 31 30 28 32 39 41 39 38 38 37 37 39 41 46 45 42 48 56 56 54 51 46 41 40 42 41 38 34 28 28 27 23 26 32 35 34 33 34 34 33 32 30 28 25 23 22 20 21 25 27 25 25 25 24 26 26 26 27 28 28 28 30 31 32 35 34 35 42 47 47 44 42 45 54 66 68 62
31 35 38 33 30 32 36 36 33 33 34 33 31 28 27 29 28 29 29 28 31 30 27 29 33 37 36 34 36 38 39 40 41 46 46 43 47 51 51 54 53 45 41 41 42 41 39 35 29 28 28 25 29 34 36 35 35 36 36 35 34 30 28 27 22 18 17 16 17 19 20 21 22 19 21 24 25 24 23 25 25 23 25 27 29 29 29 36 40 43 45 45 47 55 65 65 58
28 32 34 30 27 30 34 38 39 40 40 36 33 31 30 29 29 32 30 29 32 31 28 27 26 29 31 32 37 40 40 40 39 41 42 41 42 43 42 47 50 45 42 41 40 41 41 37 32 31 30 27 32 36 35 35 36 36 36 37 36 30 24 21 18 16 15 14 14 15 16 19 22 22 22 23 25 24 23 24 24 24 25 24 26 26 26 27 30 35 39 41 43 48 53 55 54
24 28 31 27 25 29 34 40 45 45 44 41 36 37 39 34 29 29 27 26 30 29 27 27 27 30 32 31 32 35 35 34 34 36 40 42 42 41 40 44 49 48 45 43 40 42 44 39 35 37 33 29 33 36 33 33 33 35 36 36 36 28 20 17 15 14 13 13 13 13 13 15 16 19 22 23 24 25 24 24 23 25 26 26 26 26 24 24 25 26 30 33 36 39 43 47 47
21 25 26 24 23 29 34 39 45 45 42 41 37 39 44 38 27 25 24 23 27 29 28 30 31 31 35 34 31 33 37 35 36 37 39 42 42 40 42 45 49 50 48 45 43 43 45 44 42 43 39 32 32 34 33 31 32 34 35 34 32 29 25 22 18 16 14 12 12 12 12 13 14 16 19 23 26 25 24 24 24 24 26 26 26 26 24 24 26 26 27 29 30 32 36 39 39
21 22 23 23 22 27 32 36 41 40 36 39 39 35 37 35 27 25 25 25 30 33 33 34 33 31 36 39 36 35 38 39 36 34 35 38 38 38 41 42 42 44 46 46 46 46 48 50 48 46 45 40 34 32 33 33 33 33 35 36 35 32 31 28 22 18 16 13 12 13 14 15 18 19 19 21 24 25 24 24 23 23 24 25 25 25 24 25 26 28 28 29 28 29 30 32 34
21 22 22 25 24 26 30 32 36 35 31 35 36 32 31 31 28 27 27 28 32 34 33 34 34 33 35 41 41 37 36 39 37 35 37 38 40 43 46 45 41 41 45 44 44 46 49 49 46 44 47 47 41 38 36 36 36 34 35 39 39 36 35 32 26 19 16 14 13 14 15 16 17 17 16 16 20 22 22 22 23 24 24 23 23 23 23 25 26 27 27 27 26 26 27 28 29
25 25 24 25 25 26 29 31 32 32 33 34 33 32 31 32 30 29 30 30 32 35 34 32 32 33 36 41 45 44 41 43 43 42 41 40 41 44 46 46 44 43 45 44 44 46 47 45 44 46 53 55 52 49 43 38 37 37 38 40 40 40 37 33 30 21 15 16 16 15 13 12 12 12 11 12 14 19 22 23 22 22 22 20 20 20 20 21 23 24 25 27 27 26 25 25 25
31 31 29 27 26 26 28 31 28 30 38 40 34 31 34 37 34 32 34 34 35 36 34 32 31 34 39 41 42 44 44 43 42 43 46 45 43 43 44 45 45 43 43 43 44 45 45 43 43 46 53 58 59 59 50 39 38 40 41 41 42 42 36 31 31 24 17 18 18 16 13 11 10 11 11 11 11 14 18 20 19 18 16 14 14 15 14 14 15 15 17 20 22 22 24 25 25
33 37 33 29 31 30 29 33 33 35 41 38 32 31 36 41 39 35 36 36 38 39 37 36 35 34 38 39 39 40 40 39 40 44 48 47 44 42 42 44 44 43 43 43 42 40 38 39 40 41 44 48 53 57 50 39 41 46 45 42 42 43 36 30 31 27 21 19 19 17 14 11 11 11 11 11 11 11 12 13 14 13 12 12 11 11 10 10 10 10 10 11 12 13 16 19 19
29 35 31 27 31 35 37 41 41 40 40 35 33 35 38 41 38 36 39 38 38 41 38 36 37 35 34 37 39 40 38 36 37 41 43 44 44 42 41 44 46 44 40 38 38 37 35 34 36 40 42 42 46 55 54 48 48 52 51 44 42 41 36 31 31 29 25 21 18 19 16 13 13 12 11 12 12 12 12 12 12 11 12 12 11 11 11 11 10 10 10 10 10 10 11 11 11
28 32 31 28 27 33 43 47 45 43 43 40 39 43 44 43 40 40 42 40 37 39 39 36 35 34 34 36 37 36 34 31 29 31 34 37 40 42 44 46 48 46 41 36 36 36 36 37 39 42 45 45 48 58 63 58 56 57 54 46 42 41 36 32 31 30 29 24 19 19 20 18 15 13 13 13 13 14 14 14 14 13 13 13 12 12 12 12 11 11 11 11 11 11 11 11 10
30 30 32 32 30 35 45 47 47 49 49 46 44 48 51 49 47 45 42 41 39 39 40 37 35 35 35 35 33 29 27 26 25 24 25 26 30 36 40 42 44 43 38 34 34 35 37 43 44 46 52 54 52 57 66 66 62 61 57 49 44 42 36 32 30 30 32 26 19 21 22 21 20 18 18 18 16 16 16 16 16 15 15 15 15 15 14 14 13 13 12 13 12 12 11 11 11
32 31 33 36 36 41 46 46 47 47 48 50 48 49 51 50 51 48 42 41 41 40 39 37 37 36 35 34 29 26 25 24 23 21 21 22 24 28 32 34 36 36 34 36 39 41 45 49 52 53 57 59 54 55 62 65 65 64 62 58 51 45 40 35 30 31 34 28 22 25 26 25 25 25 26 26 24 22 22 22 22 22 23 22 21 21 20 19 18 17 17 16 16 15 15 15 14
32 34 35 38 38 42 46 46 45 44 49 52 47 45 48 44 43 43 40 39 40 40 39 37 37 37 37 36 31 27 25 24 25 26 26 27 27 28 29 29 32 33 34 40 43 44 45 53 66 68 63 63 65 61 54 52 56 59 63 67 60 49 44 41 34 33 36 34 27 28 32 32 31 31 33 33 32 29 29 29 30 30 30 30 29 29 28 27 27 27 26 25 23 22 21 21 21
29 33 34 34 36 40 45 45 44 45 50 49 40 40 44 41 40 40 37 37 39 40 40 38 37 36 36 36 32 30 29 27 28 29 30 29 28 29 28 29 32 32 33 40 47 49 48 52 68 78 76 75 74 66 51 43 47 52 58 68 68 57 50 48 43 38 40 41 35 33 36 38 36 37 39 39 37 35 34 34 34 34 35 35 34 34 33 34 34 33 32 31 31 30 28 27 26
22 28 30 30 31 34 37 39 41 45 47 45 41 39 39 40 43 42 38 40 43 42 40 38 37 36 35 34 31 31 31 29 28 29 29 29 28 28 28 29 32 32 34 43 51 55 55 53 56 63 69 68 65 62 57 53 52 50 52 65 71 65 58 53 48 45 44 46 43 39 40 40 38 39 42 43 42 41 40 39 38 38 38 38 38 38 38 38 37 35 33 31 32 33 33 33 32
22 23 25 26 27 27 30 35 38 42 46 48 46 42 40 43 46 44 41 42 45 45 45 41 38 36 36 35 33 33 34 33 29 28 29 29 28 28 29 30 33 34 34 39 44 48 53 54 54 54 53 53 58 62 62 62 59 50 51 63 68 64 59 54 51 50 49 50 48 44 43 44 41 39 42 44 45 45 43 42 41 41 42 41 41 41 42 41 39 37 36 33 33 34 33 33 32
30 30 27 27 29 29 30 31 30 34 42 50 51 47 46 48 47 44 43 44 46 48 48 46 43 40 37 36 34 34 36 36 31 27 28 31 31 30 30 31 34 36 35 35 37 39 44 48 51 53 50 53 62 64 59 58 57 51 55 64 66 62 59 56 55 56 54 53 53 49 46 47 46 44 43 44 45 44 43 43 43 44 46 46 46 45 44 44 43 42 41 39 38 38 37 36 35
33 35 34 36 43 42 39 38 35 32 34 43 51 53 52 51 46 43 43 43 46 48 47 49 48 43 39 37 36 34 33 33 31 28 30 33 34 33 32 32 33 34 35 35 34 35 39 41 46 51 52 55 62 61 56 55 55 54 58 63 63 63 63 63 62 61 59 57 57 55 51 50 50 50 49 50 49 46 45 46 46 47 49 53 55 56 54 51 49 48 48 45 44 43 42 41 39